GW0719 Weather Reports


Display with metric or nautical units.
time (UTC)temp
F
wind
direction
speed
MPH
gust
MPH
rain 1hr
in
rain 24hr
in
rain mn
in
humidity
%
barometer
mb
20260507085652 40 41 0.0 0.0 0.00 0.00 0.00 10 1011.5
20260507085148 41 22 0.0 0.0 0.00 0.00 0.00 10 1011.3
20260507084645 42 32 0.0 0.0 0.00 0.00 0.00 10 1011.5
20260507084142 42 15 0.0 0.0 0.00 0.00 0.00 10 1011.1
20260507083639 42 40 0.0 0.0 0.00 0.00 0.00 10 1011.0
20260507083136 42 49 0.0 0.0 0.00 0.00 0.00 10 1011.3
20260507082631 43 53 0.0 0.0 0.00 0.00 0.00 10 1011.4
20260507082128 44 56 0.0 0.0 0.00 0.00 0.00 10 1011.2
20260507081625 44 55 0.0 0.0 0.00 0.00 0.00 10 1011.3
20260507081121 44 51 0.0 0.0 0.00 0.00 0.00 10 1011.3
20260507080618 44 55 0.0 0.0 0.00 0.00 0.00 10 1011.4
20260507080115 44 45 0.0 0.0 0.00 0.00 0.00 10 1011.6
20260507075614 43 49 0.0 0.0 0.00 0.00 0.00 10 1011.4
20260507075111 43 41 0.0 0.0 0.00 0.00 0.00 10 1011.2
20260507074608 42 50 0.0 0.0 0.00 0.00 0.00 10 1011.3
20260507074106 42 31 0.0 0.0 0.00 0.00 0.00 10 1011.2
20260507073602 42 25 0.0 0.0 0.00 0.00 0.00 10 1011.3
20260507073058 41 18 0.0 0.0 0.00 0.00 0.00 10 1011.2
20260507072556 40 39 0.0 0.0 0.00 0.00 0.00 10 1011.2
20260507072053 40 19 0.0 0.0 0.00 0.00 0.00 10 1011.1
20260507071551 40 48 0.0 0.0 0.00 0.00 0.00 10 1010.9
20260507071047 40 322 0.0 0.0 0.00 0.00 0.00 10 1010.8
20260507070544 40 315 0.0 0.0 0.00 0.00 0.00 10 1010.8
20260507070041 42 336 0.0 0.0 0.00 0.00 0.00 10 1010.8
20260507065537 43 1 0.0 0.0 0.00 0.00 0.00 10 1010.7
20260507065035 44 318 0.0 0.0 0.00 0.00 0.00 10 1010.4
20260507064532 46 60 0.0 0.0 0.00 0.00 0.00 10 1010.7
20260507064031 47 69 0.0 0.0 0.00 0.00 0.00 10 1010.7
20260507063527 48 77 0.0 0.0 0.00 0.00 0.00 10 1010.5
20260507063025 48 97 0.0 0.0 0.00 0.00 0.00 10 1010.7
20260507062521 49 95 0.0 0.0 0.00 0.00 0.00 10 1010.4
20260507062019 49 94 0.0 0.0 0.00 0.00 0.00 10 1010.3
20260507061517 50 82 0.0 0.0 0.00 0.00 0.00 10 1010.4
20260507061015 49 107 0.0 0.0 0.00 0.00 0.00 10 1010.4
20260507060512 50 95 0.0 0.0 0.00 0.00 0.00 10 1010.7
20260507060009 51 102 0.0 0.0 0.00 0.00 0.00 10 1010.7
20260507055503 51 98 0.0 1.0 0.00 0.00 0.00 10 1010.8
20260507055000 53 102 0.0 1.0 0.00 0.00 0.00 10 1010.8
20260507054456 53 90 0.0 0.0 0.00 0.00 0.00 10 1010.9
20260507053954 53 103 0.0 0.0 0.00 0.00 0.00 10 1011.1
20260507053451 53 89 0.0 0.0 0.00 0.00 0.00 10 1011.1
20260507052949 53 88 1.0 3.0 0.00 0.00 0.00 10 1010.3
20260507052447 54 88 0.0 1.0 0.00 0.00 0.00 10 1010.3
20260507051943 54 77 1.0 2.0 0.00 0.00 0.00 10 1010.1
20260507051441 54 97 0.0 0.0 0.00 0.00 0.00 10 1009.8
20260507050938 53 95 0.0 1.0 0.00 0.00 0.00 10 1009.9
20260507050434 54 71 0.0 1.0 0.00 0.00 0.00 10 1010.0
20260507045932 55 101 0.0 0.0 0.00 0.00 0.00 10 1009.9
20260507045428 55 84 0.0 1.0 0.00 0.00 0.00 10 1010.0
20260507044925 55 96 0.0 0.0 0.00 0.00 0.00 10 1009.9
20260507044422 53 93 0.0 0.0 0.00 0.00 0.00 10 1009.9
20260507043918 54 114 0.0 0.0 0.00 0.00 0.00 10 1009.8
20260507043414 54 104 0.0 0.0 0.00 0.00 0.00 10 1009.6
20260507042911 54 118 0.0 0.0 0.00 0.00 0.00 10 1009.6
20260507042407 54 115 0.0 0.0 0.00 0.00 0.00 10 1009.8
20260507041903 55 117 0.0 0.0 0.00 0.00 0.00 10 1009.6
20260507041400 56 102 0.0 0.0 0.00 0.00 0.00 10 1009.7
20260507040858 56 133 0.0 0.0 0.00 0.00 0.00 10 1009.8
20260507040353 58 135 0.0 0.0 0.00 0.00 0.00 10 1009.4
20260507035849 55 153 0.0 0.0 0.00 0.00 0.00 10 1009.2
20260507035345 55 154 0.0 0.0 0.00 0.00 0.00 10 1009.6
20260507034843 56 141 0.0 0.0 0.00 0.00 0.00 10 1009.2
20260507034339 58 189 0.0 0.0 0.00 0.00 0.00 10 1009.6
20260507033837 59 151 0.0 0.0 0.00 0.00 0.00 10 1009.4
20260507033335 60 172 0.0 0.0 0.00 0.00 0.00 10 1009.2
20260507032832 58 144 0.0 0.0 0.00 0.00 0.00 10 1009.6
20260507032328 56 272 0.0 1.0 0.00 0.00 0.00 10 1009.7
20260507031825 58 133 0.0 0.0 0.00 0.00 0.00 10 1009.3
20260507031322 58 117 0.0 0.0 0.00 0.00 0.00 10 1009.2
20260507030818 59 128 0.0 0.0 0.00 0.00 0.00 10 1009.0
20260507030316 58 124 0.0 0.0 0.00 0.00 0.00 10 1009.2
20260507025812 58 127 0.0 0.0 0.00 0.00 0.00 10 1009.1
20260507025310 59 152 0.0 0.0 0.00 0.00 0.00 10 1008.9
20260507024808 60 85 0.0 0.0 0.00 0.00 0.00 10 1008.7
20260507024304 59 105 0.0 0.0 0.00 0.00 0.00 10 1008.8
20260507023800 59 82 0.0 0.0 0.00 0.00 0.00 10 1008.8
20260507023257 60 64 0.0 0.0 0.00 0.00 0.00 10 1008.7
20260507022754 61 63 0.0 0.0 0.00 0.00 0.00 10 1008.6
20260507022251 63 67 0.0 0.0 0.00 0.00 0.00 10 1008.3
20260507021747 63 63 0.0 0.0 0.00 0.00 0.00 10 1008.5
20260507021242 63 61 0.0 0.0 0.00 0.00 0.00 10 1008.7
20260507020741 64 57 0.0 0.0 0.00 0.00 0.00 10 1008.7
20260507020237 65 69 0.0 0.0 0.00 0.00 0.00 10 1008.5
20260507015734 66 66 0.0 0.0 0.00 0.00 0.00 10 1008.3
20260507015232 66 57 0.0 0.0 0.00 0.00 0.00 10 1008.7
20260507014728 67 63 0.0 0.0 0.00 0.00 0.00 10 1008.8
20260507014225 67 56 0.0 0.0 0.00 0.00 0.00 10 1008.9
20260507013721 68 39 0.0 0.0 0.00 0.00 0.00 10 1008.7
20260507013219 68 27 0.0 0.0 0.00 0.00 0.00 10 1008.9
20260507012716 68 40 0.0 0.0 0.00 0.00 0.00 10 1008.6
20260507012211 68 42 0.0 0.0 0.00 0.00 0.00 10 1008.8
20260507011709 69 37 0.0 0.0 0.00 0.00 0.00 10 1008.8
20260507011206 69 9 0.0 0.0 0.00 0.00 0.00 10 1008.7
20260507010705 70 26 0.0 0.0 0.00 0.00 0.00 10 1008.7
20260507010201 70 341 0.0 0.0 0.00 0.00 0.00 10 1008.8
20260507005659 69 340 0.0 0.0 0.00 0.00 0.00 10 1008.8
20260507005155 70 337 0.0 0.0 0.00 0.00 0.00 10 1008.8
20260507004652 70 334 0.0 1.0 0.00 0.00 0.00 10 1008.9
20260507004149 70 9 0.0 1.0 0.00 0.00 0.00 10 1008.9
20260507003646 70 339 0.0 0.0 0.00 0.00 0.00 10 1008.9
20260507003145 70 338 1.0 3.0 0.00 0.00 0.00 10 1009.0
20260507002642 70 345 0.0 1.0 0.00 0.00 0.00 10 1009.0
20260507002138 70 6 1.0 2.0 0.00 0.00 0.00 10 1008.9
20260507001635 70 8 0.0 0.0 0.00 0.00 0.00 10 1009.0
20260507001133 70 42 0.0 0.0 0.00 0.00 0.00 10 1009.0
20260507000629 69 27 0.0 0.0 0.00 0.00 0.00 10 1009.1
20260507000124 69 4 0.0 0.0 0.00 0.00 0.00 10 1009.3
20260506235622 68 32 0.0 0.0 0.00 0.00 0.00 10 1009.1
20260506235122 68 36 0.0 0.0 0.00 0.00 0.00 10 1009.0
20260506234619 68 15 0.0 0.0 0.00 0.00 0.00 10 1009.2
20260506234116 68 36 0.0 0.0 0.00 0.00 0.00 10 1009.0
20260506233613 68 46 0.0 0.0 0.00 0.00 0.00 10 1009.0
20260506233110 68 348 0.0 0.0 0.00 0.00 0.00 10 1009.3
20260506232606 69 2 0.0 0.0 0.00 0.00 0.00 10 1009.2
20260506232102 69 20 0.0 0.0 0.00 0.00 0.00 10 1009.2
20260506231559 68 76 0.0 0.0 0.00 0.00 0.00 10 1009.2
20260506231058 69 52 0.0 1.0 0.00 0.00 0.00 10 1009.3
20260506230554 69 31 0.0 0.0 0.00 0.00 0.00 10 1009.3
20260506230051 68 15 0.0 0.0 0.00 0.00 0.00 10 1009.4
20260506225548 68 327 0.0 0.0 0.00 0.00 0.00 10 1009.7
20260506225044 68 48 0.0 0.0 0.00 0.00 0.00 10 1009.8
20260506224541 68 343 0.0 0.0 0.00 0.00 0.00 10 1009.6
20260506224038 68 26 0.0 0.0 0.00 0.00 0.00 10 1009.8
20260506223533 68 19 0.0 0.0 0.00 0.00 0.00 10 1010.0
20260506223030 68 13 0.0 0.0 0.00 0.00 0.00 10 1010.0
20260506222527 68 34 0.0 0.0 0.00 0.00 0.00 10 1010.2
20260506222023 68 10 1.0 1.0 0.00 0.00 0.00 10 1010.2
20260506221521 68 321 0.0 0.0 0.00 0.00 0.00 10 1010.2
20260506221019 68 342 0.0 0.0 0.00 0.00 0.00 10 1010.7
20260506220514 67 345 0.0 0.0 0.00 0.00 0.00 10 1010.8
20260506220010 67 34 0.0 2.0 0.00 0.00 0.00 10 1010.8
20260506215508 67 19 0.0 2.0 0.00 0.00 0.00 10 1010.5
20260506215003 67 93 0.0 0.0 0.00 0.00 0.00 10 1010.4
20260506214500 66 293 0.0 1.0 0.00 0.00 0.00 10 1010.5
20260506213957 65 311 0.0 2.0 0.00 0.00 0.00 10 1010.8
20260506213455 66 327 0.0 1.0 0.00 0.00 0.00 10 1010.9
20260506212952 67 324 0.0 1.0 0.00 0.00 0.00 10 1010.9
20260506212448 65 348 0.0 0.0 0.00 0.00 0.00 10 1011.2
20260506211943 66 313 6.0 15.0 0.00 0.00 0.00 10 1011.4
20260506211439 65 352 1.0 2.0 0.00 0.00 0.00 10 1011.3
20260506210937 64 353 0.0 0.0 0.00 0.00 0.00 10 1011.2
20260506210433 64 296 0.0 2.0 0.00 0.00 0.00 10 1011.4
20260506205930 63 266 0.0 1.0 0.00 0.00 0.00 10 1011.4
20260506205426 64 300 0.0 2.0 0.00 0.00 0.00 10 1011.8
20260506204922 63 311 0.0 3.0 0.00 0.00 0.00 10 1011.9
20260506204421 63 245 0.0 1.0 0.00 0.00 0.00 10 1011.6
20260506203918 63 295 0.0 0.0 0.00 0.00 0.00 10 1011.8
20260506203415 63 306 0.0 2.0 0.00 0.00 0.00 10 1011.9
20260506202912 62 344 0.0 1.0 0.00 0.00 0.00 10 1012.0
20260506202409 62 355 1.0 3.0 0.00 0.00 0.00 10 1012.2
20260506201905 62 12 0.0 0.0 0.00 0.00 0.00 10 1012.2
20260506201403 62 263 0.0 2.0 0.00 0.00 0.00 10 1012.1
20260506200859 62 284 0.0 1.0 0.00 0.00 0.00 10 1012.3
20260506200355 61 21 0.0 1.0 0.00 0.00 0.00 10 1012.5
20260506195852 61 300 0.0 1.0 0.00 0.00 0.00 10 1012.3
20260506195349 60 38 0.0 1.0 0.00 0.00 0.00 10 1012.6
20260506194846 61 235 0.0 0.0 0.00 0.00 0.00 10 1012.4
20260506194343 59 156 0.0 0.0 0.00 0.00 0.00 10 1013.0
20260506193840 59 288 0.0 3.0 0.00 0.00 0.00 10 1012.9
20260506193337 60 296 0.0 2.0 0.00 0.00 0.00 10 1013.1
20260506192833 59 303 0.0 1.0 0.00 0.00 0.00 10 1013.3
20260506192330 59 285 0.0 2.0 0.00 0.00 0.00 10 1013.0
20260506191827 58 349 0.0 1.0 0.00 0.00 0.00 10 1013.2
20260506191323 59 257 0.0 1.0 0.00 0.00 0.00 10 1013.2
20260506190820 58 273 0.0 2.0 0.00 0.00 0.00 10 1013.3
20260506190317 59 266 0.0 2.0 0.00 0.00 0.00 10 1013.4
20260506185814 58 356 0.0 2.0 0.00 0.00 0.00 10 1013.4
20260506185311 58 345 0.0 1.0 0.00 0.00 0.00 10 1013.3
20260506184808 58 255 0.0 1.0 0.00 0.00 0.00 10 1013.9
20260506184305 56 243 0.0 0.0 0.00 0.00 0.00 10 1013.7
20260506183802 57 192 0.0 1.0 0.00 0.00 0.00 10 1014.0
20260506183257 56 300 0.0 0.0 0.00 0.00 0.00 10 1014.0
20260506182754 56 211 0.0 0.0 0.00 0.00 0.00 10 1014.1
20260506182252 56 277 0.0 0.0 0.00 0.00 0.00 10 1014.2
20260506181749 55 219 0.0 1.0 0.00 0.00 0.00 10 1014.3
20260506181247 54 200 0.0 1.0 0.00 0.00 0.00 10 1014.4
20260506180744 55 303 0.0 2.0 0.00 0.00 0.00 10 1014.6
20260506180239 55 217 0.0 0.0 0.00 0.00 0.00 10 1014.6
20260506175736 55 267 0.0 1.0 0.00 0.00 0.00 10 1014.6
20260506175233 54 277 0.0 2.0 0.00 0.00 0.00 10 1014.7
20260506174731 54 289 0.0 1.0 0.00 0.00 0.00 10 1014.6
20260506174227 53 258 0.0 1.0 0.00 0.00 0.00 10 1015.1
20260506173725 54 261 0.0 1.0 0.00 0.00 0.00 10 1015.0
20260506173222 53 258 0.0 2.0 0.00 0.00 0.00 10 1014.8
20260506172719 52 238 0.0 0.0 0.00 0.00 0.00 10 1015.2
20260506172215 51 237 0.0 0.0 0.00 0.00 0.00 10 1015.4
20260506171713 52 232 1.0 2.0 0.00 0.00 0.00 10 1015.5
20260506171210 52 300 0.0 0.0 0.00 0.00 0.00 10 1015.6
20260506170708 51 286 1.0 2.0 0.00 0.00 0.00 10 1015.6
20260506170204 52 263 0.0 1.0 0.00 0.00 0.00 10 1015.6
20260506165703 51 293 0.0 2.0 0.00 0.00 0.00 10 1016.1
20260506165159 51 230 0.0 0.0 0.00 0.00 0.00 10 1015.6
20260506164656 51 269 0.0 1.0 0.00 0.00 0.00 10 1016.1
20260506164153 50 213 0.0 2.0 0.00 0.00 0.00 10 1016.1
20260506163650 50 227 0.0 1.0 0.00 0.00 0.00 10 1015.9
20260506163145 49 254 0.0 1.0 0.00 0.00 0.00 10 1016.1
20260506162641 50 262 0.0 0.0 0.00 0.00 0.00 10 1016.2
20260506162139 49 250 0.0 1.0 0.00 0.00 0.00 10 1015.8
20260506161636 49 240 0.0 1.0 0.00 0.00 0.00 10 1016.4
20260506161133 48 244 0.0 1.0 0.00 0.00 0.00 10 1016.2
20260506160630 48 239 0.0 1.0 0.00 0.00 0.00 10 1016.6
20260506160127 47 250 0.0 1.0 0.00 0.00 0.00 10 1016.4
20260506155626 48 282 0.0 1.0 0.00 0.00 0.00 10 1016.6
20260506155122 45 286 0.0 8.0 0.00 0.00 0.00 10 1016.7
20260506153224 45 262 0.0 1.0 0.00 0.00 0.00 10 1016.9
20260506152721 45 319 0.0 1.0 0.00 0.00 0.00 10 1016.9
20260506152219 46 237 0.0 1.0 0.00 0.00 0.00 10 1017.2
20260506151718 45 279 0.0 2.0 0.00 0.00 0.00 10 1017.2
20260506151214 44 273 0.0 1.0 0.00 0.00 0.00 10 1017.0
20260506150710 44 316 0.0 2.0 0.00 0.00 0.00 10 1017.0
20260506150207 44 292 0.0 2.0 0.00 0.00 0.00 10 1017.2
20260506145704 44 258 0.0 0.0 0.00 0.00 0.00 10 1017.4
20260506145201 44 262 0.0 1.0 0.00 0.00 0.00 10 1017.3
20260506144659 44 298 0.0 0.0 0.00 0.00 0.00 10 1017.6
20260506144155 43 259 0.0 0.0 0.00 0.00 0.00 10 1017.5
20260506143653 44 271 0.0 1.0 0.00 0.00 0.00 10 1017.4
20260506143150 43 292 0.0 1.0 0.00 0.00 0.00 10 1017.4
20260506142649 43 257 0.0 0.0 0.00 0.00 0.00 10 1017.4
20260506142146 43 284 0.0 0.0 0.00 0.00 0.00 10 1017.6
20260506141644 42 273 0.0 1.0 0.00 0.00 0.00 10 1017.7
20260506141142 42 301 0.0 1.0 0.00 0.00 0.00 10 1017.6
20260506140639 42 267 0.0 1.0 0.00 0.00 0.00 10 1017.8
20260506140136 41 274 0.0 1.0 0.00 0.00 0.00 10 1017.7
20260506135633 40 2 0.0 0.0 0.00 0.00 0.00 10 1017.9
20260506135129 39 281 0.0 1.0 0.00 0.00 0.00 10 1017.6
20260506134626 39 282 0.0 1.0 0.00 0.00 0.00 10 1018.0
20260506134121 37 319 0.0 0.0 0.00 0.00 0.00 10 1018.0
20260506133619 36 334 0.0 0.0 0.00 0.00 0.00 10 1018.0
20260506133116 35 308 0.0 0.0 0.00 0.00 0.00 10 1018.0
20260506132614 33 19 0.0 0.0 0.00 0.00 0.00 10 1017.9
20260506132110 32 339 0.0 0.0 0.00 0.00 0.00 10 1017.8
20260506131608 32 7 0.0 0.0 0.00 0.00 0.00 10 1017.8
20260506131104 31 309 0.0 0.0 0.00 0.00 0.00 10 1017.7
20260506130601 29 346 0.0 0.0 0.00 0.00 0.00 10 1018.0
20260506130058 28 332 0.0 0.0 0.00 0.00 0.00 10 1018.1
20260506125557 26 347 0.0 0.0 0.00 0.00 0.00 10 1018.1
20260506125054 25 298 0.0 0.0 0.00 0.00 0.00 10 1018.1
20260506124552 24 325 0.0 0.0 0.00 0.00 0.00 10 1018.1
20260506124049 24 318 0.0 0.0 0.00 0.00 0.00 10 1018.3
20260506123547 23 326 0.0 0.0 0.00 0.00 0.00 10 1018.3
20260506123045 22 353 0.0 0.0 0.00 0.00 0.00 10 1018.1
20260506122541 21 313 0.0 0.0 0.00 0.00 0.00 10 1018.3
20260506122040 20 330 0.0 0.0 0.00 0.00 0.00 10 1018.3
20260506121537 21 2 0.0 0.0 0.00 0.00 0.00 10 1018.3
20260506121033 20 2 0.0 0.0 0.00 0.00 0.00 10 1018.5
20260506120531 20 311 0.0 0.0 0.00 0.00 0.00 10 1018.4
20260506120028 20 306 0.0 0.0 0.00 0.00 0.00 10 1018.3
20260506115526 19 343 0.0 0.0 0.00 0.00 0.00 10 1018.4
20260506115024 20 314 0.0 0.0 0.00 0.00 0.00 10 1018.8
20260506114521 20 322 0.0 0.0 0.00 0.00 0.00 10 1018.4
20260506114020 19 308 0.0 0.0 0.00 0.00 0.00 10 1018.6
20260506113517 19 315 0.0 0.0 0.00 0.00 0.00 10 1018.7
20260506113014 19 340 0.0 0.0 0.00 0.00 0.00 10 1018.7
20260506112511 20 311 0.0 0.0 0.00 0.00 0.00 10 1018.9
20260506112008 20 306 0.0 0.0 0.00 0.00 0.00 10 1019.0
20260506111506 20 300 0.0 0.0 0.00 0.00 0.00 10 1018.9
20260506111003 20 302 0.0 0.0 0.00 0.00 0.00 10 1019.0
20260506110501 21 300 0.0 0.0 0.00 0.00 0.00 10 1018.8
20260506105957 21 288 0.0 0.0 0.00 0.00 0.00 10 1019.1
20260506105453 21 323 0.0 0.0 0.00 0.00 0.00 10 1019.2
20260506104951 21 305 0.0 0.0 0.00 0.00 0.00 10 1019.1
20260506104449 21 287 0.0 0.0 0.00 0.00 0.00 10 1019.2
20260506103947 22 295 0.0 0.0 0.00 0.00 0.00 10 1019.2
20260506103444 22 296 0.0 0.0 0.00 0.00 0.00 10 1019.5
20260506102940 23 301 0.0 0.0 0.00 0.00 0.00 10 1019.4
20260506102439 23 313 0.0 0.0 0.00 0.00 0.00 10 1019.4
20260506101936 23 305 0.0 0.0 0.00 0.00 0.00 10 1019.1
20260506101432 23 332 0.0 0.0 0.00 0.00 0.00 10 1019.4
20260506100929 24 313 0.0 0.0 0.00 0.00 0.00 10 1019.5
20260506100427 24 348 0.0 0.0 0.00 0.00 0.00 10 1019.8
20260506095925 23 310 0.0 0.0 0.00 0.00 0.00 10 1019.7
20260506095424 23 318 0.0 0.0 0.00 0.00 0.00 10 1019.7
20260506094919 23 304 0.0 0.0 0.00 0.00 0.00 10 1019.9
20260506094418 21 305 0.0 0.0 0.00 0.00 0.00 10 1019.8
20260506093915 20 2 0.0 0.0 0.00 0.00 0.00 10 1019.7
20260506093413 19 23 0.0 0.0 0.00 0.00 0.00 10 1019.7
20260506092911 20 37 0.0 0.0 0.00 0.00 0.00 10 1019.7
20260506092409 20 7 0.0 0.0 0.00 0.00 0.00 10 1019.9
20260506091905 19 21 0.0 0.0 0.00 0.00 0.00 10 1019.9
20260506091403 18 35 0.0 0.0 0.00 0.00 0.00 10 1020.0
20260506090900 18 34 0.0 0.0 0.00 0.00 0.00 10 1020.0
20260506090357 19 28 0.0 0.0 0.00 0.00 0.00 10 1020.0